Time,TemperatureF,DewpointF,PressureIn,WindDirection,WindDirectionDegrees,WindSpeedMPH,WindSpeedGustMPH,Humidity,HourlyPrecipIn,Conditions,Clouds,dailyrainin,SoftwareType,DateUTC
2013-09-11 00:07:00,67.1,59.3,29.92,SE,134,0.0,7.0,76,0.00,,,-99.99,Weather View 32 v70,2013-09-11 05:07:00,
2013-09-11 00:14:00,67.1,58.9,29.92,SSW,212,0.0,7.0,75,0.00,,,-99.99,Weather View 32 v70,2013-09-11 05:14:00,
2013-09-11 00:19:00,66.9,58.7,29.92,SSW,202,0.0,7.0,75,0.00,,,-99.99,Weather View 32 v70,2013-09-11 05:19:00,
2013-09-11 00:29:00,66.6,58.4,29.92,NW,311,4.0,7.0,75,0.00,,,-99.99,Weather View 32 v70,2013-09-11 05:29:00,
2013-09-11 00:39:00,65.8,57.7,29.92,WNW,298,4.0,7.0,75,0.00,,,-99.99,Weather View 32 v70,2013-09-11 05:39:00,
2013-09-11 00:44:00,65.7,57.9,29.92,WNW,301,3.0,7.0,76,0.00,,,-99.99,Weather View 32 v70,2013-09-11 05:44:00,
2013-09-11 00:49:00,65.5,58.1,29.92,West,278,3.0,7.0,77,0.00,,,-99.99,Weather View 32 v70,2013-09-11 05:49:00,
2013-09-11 00:59:00,65.1,58.1,29.92,WNW,300,3.0,7.0,78,0.00,,,-99.99,Weather View 32 v70,2013-09-11 05:59:00,
2013-09-11 01:08:00,65.1,58.1,29.92,WNW,287,4.0,7.0,78,0.00,,,-99.99,Weather View 32 v70,2013-09-11 06:08:00,
2013-09-11 01:14:00,64.9,58.2,29.92,WNW,297,3.0,7.0,79,0.00,,,-99.99,Weather View 32 v70,2013-09-11 06:14:00,
2013-09-11 01:19:00,64.8,58.1,29.92,WNW,291,3.0,7.0,79,0.00,,,-99.99,Weather View 32 v70,2013-09-11 06:19:00,
2013-09-11 01:34:00,64.2,57.9,29.92,WNW,296,3.0,6.0,80,0.00,,,-99.99,Weather View 32 v70,2013-09-11 06:34:00,
2013-09-11 01:39:00,64.0,58.1,29.92,WNW,297,4.0,6.0,81,0.00,,,-99.99,Weather View 32 v70,2013-09-11 06:39:00,
2013-09-11 01:49:00,64.0,58.1,29.92,WNW,295,4.0,5.0,81,0.00,,,-99.99,Weather View 32 v70,2013-09-11 06:49:00,
2013-09-11 01:54:00,64.0,58.4,29.92,West,280,3.0,5.0,82,0.00,,,-99.99,Weather View 32 v70,2013-09-11 06:54:00,
2013-09-11 01:59:00,63.9,58.2,29.92,WNW,288,4.0,6.0,82,0.00,,,-99.99,Weather View 32 v70,2013-09-11 06:59:00,
2013-09-11 02:08:00,63.9,58.2,29.92,WNW,294,4.0,6.0,82,0.00,,,-99.99,Weather View 32 v70,2013-09-11 07:08:00,
2013-09-11 02:14:00,63.9,58.2,29.92,WNW,295,3.0,6.0,82,0.00,,,-99.99,Weather View 32 v70,2013-09-11 07:14:00,
2013-09-11 02:19:00,63.9,58.2,29.92,WNW,292,3.0,6.0,82,0.00,,,-99.99,Weather View 32 v70,2013-09-11 07:19:00,
2013-09-11 02:29:00,63.7,58.4,29.92,WNW,293,6.0,6.0,83,0.00,,,-99.99,Weather View 32 v70,2013-09-11 07:29:00,
2013-09-11 02:39:00,63.5,58.2,29.92,WNW,287,4.0,6.0,83,0.00,,,-99.99,Weather View 32 v70,2013-09-11 07:39:00,
2013-09-11 02:44:00,63.5,58.2,29.94,WNW,288,4.0,6.0,83,0.00,,,-99.99,Weather View 32 v70,2013-09-11 07:44:00,
2013-09-11 02:54:00,63.3,58.1,29.94,WNW,288,3.0,6.0,83,0.00,,,-99.99,Weather View 32 v70,2013-09-11 07:54:00,
2013-09-11 02:59:00,63.1,57.5,29.92,WNW,291,3.0,6.0,82,0.00,,,-99.99,Weather View 32 v70,2013-09-11 07:59:00,
2013-09-11 03:09:00,63.1,57.5,29.92,WNW,291,0.0,6.0,82,0.00,,,-99.99,Weather View 32 v70,2013-09-11 08:09:00,
2013-09-11 03:14:00,63.0,57.4,29.94,WNW,287,4.0,6.0,82,0.00,,,-99.99,Weather View 32 v70,2013-09-11 08:14:00,
2013-09-11 03:24:00,63.1,57.5,29.94,WNW,287,4.0,6.0,82,0.00,,,-99.99,Weather View 32 v70,2013-09-11 08:24:00,
2013-09-11 03:29:00,63.1,57.5,29.94,WNW,299,5.0,6.0,82,0.00,,,-99.99,Weather View 32 v70,2013-09-11 08:29:00,
2013-09-11 03:34:00,63.3,57.7,29.94,WNW,296,3.0,7.0,82,0.00,,,-99.99,Weather View 32 v70,2013-09-11 08:34:00,
2013-09-11 03:44:00,63.1,57.2,29.94,West,271,0.0,7.0,81,0.00,,,-99.99,Weather View 32 v70,2013-09-11 08:44:00,
2013-09-11 03:49:00,63.0,57.0,29.94,WNW,282,4.0,7.0,81,0.00,,,-99.99,Weather View 32 v70,2013-09-11 08:49:00,
2013-09-11 03:59:00,62.6,56.7,29.94,West,272,3.0,7.0,81,0.00,,,-99.99,Weather View 32 v70,2013-09-11 08:59:00,
2013-09-11 04:09:00,62.4,56.5,29.94,WNW,291,4.0,7.0,81,0.00,,,-99.99,Weather View 32 v70,2013-09-11 09:09:00,
2013-09-11 04:18:00,62.2,56.0,29.94,West,270,4.0,7.0,80,0.00,,,-99.99,Weather View 32 v70,2013-09-11 09:18:00,
2013-09-11 04:23:00,61.9,55.6,29.94,WSW,247,0.0,7.0,80,0.00,,,-99.99,Weather View 32 v70,2013-09-11 09:23:00,
2013-09-11 04:33:00,61.5,55.3,29.94,West,280,0.0,6.0,80,0.00,,,-99.99,Weather View 32 v70,2013-09-11 09:33:00,
2013-09-11 04:38:00,61.3,55.1,29.94,West,267,0.0,6.0,80,0.00,,,-99.99,Weather View 32 v70,2013-09-11 09:38:00,
2013-09-11 04:48:00,61.3,55.4,29.94,WNW,285,0.0,5.0,81,0.00,,,-99.99,Weather View 32 v70,2013-09-11 09:48:00,
2013-09-11 04:53:00,61.5,55.6,29.94,WNW,297,2.0,5.0,81,0.00,,,-99.99,Weather View 32 v70,2013-09-11 09:53:00,
2013-09-11 04:58:00,61.5,55.6,29.94,WNW,295,0.0,5.0,81,0.00,,,-99.99,Weather View 32 v70,2013-09-11 09:58:00,
2013-09-11 05:08:00,61.3,55.4,29.94,WSW,257,3.0,4.0,81,0.00,,,-99.99,Weather View 32 v70,2013-09-11 10:08:00,
2013-09-11 05:13:00,61.3,55.8,29.97,WNW,296,0.0,5.0,82,0.00,,,-99.99,Weather View 32 v70,2013-09-11 10:13:00,
2013-09-11 05:18:00,61.3,55.8,29.97,WNW,296,0.0,5.0,82,0.00,,,-99.99,Weather View 32 v70,2013-09-11 10:18:00,
2013-09-11 05:28:00,61.2,55.6,29.97,WNW,296,0.0,5.0,82,0.00,,,-99.99,Weather View 32 v70,2013-09-11 10:28:00,
2013-09-11 05:33:00,61.2,55.6,29.97,WNW,296,0.0,5.0,82,0.00,,,-99.99,Weather View 32 v70,2013-09-11 10:33:00,
2013-09-11 05:38:00,61.0,55.4,29.97,WNW,296,0.0,5.0,82,0.00,,,-99.99,Weather View 32 v70,2013-09-11 10:38:00,
2013-09-11 05:48:00,60.8,55.3,29.97,WNW,296,0.0,5.0,82,0.00,,,-99.99,Weather View 32 v70,2013-09-11 10:48:00,
2013-09-11 05:58:00,60.6,55.4,29.97,WNW,296,0.0,5.0,83,0.00,,,-99.99,Weather View 32 v70,2013-09-11 10:58:00,
2013-09-11 06:03:00,60.3,55.1,29.97,WNW,296,0.0,5.0,83,0.00,,,-99.99,Weather View 32 v70,2013-09-11 11:03:00,
2013-09-11 06:10:00,60.1,54.9,29.97,WNW,296,0.0,5.0,83,0.00,,,-99.99,Weather View 32 v70,2013-09-11 11:10:00,
2013-09-11 06:18:00,59.7,54.5,29.97,WNW,296,0.0,2.0,83,0.00,,,-99.99,Weather View 32 v70,2013-09-11 11:18:00,
2013-09-11 06:23:00,59.5,54.4,29.97,WNW,296,0.0,2.0,83,0.00,,,-99.99,Weather View 32 v70,2013-09-11 11:23:00,
2013-09-11 06:33:00,59.5,54.4,29.97,WNW,296,0.0,0.0,83,0.00,,,-99.99,Weather View 32 v70,2013-09-11 11:33:00,
2013-09-11 06:38:00,59.5,54.4,29.97,WNW,296,0.0,2.0,83,0.00,,,-99.99,Weather View 32 v70,2013-09-11 11:38:00,
2013-09-11 06:48:00,59.7,54.9,29.97,WNW,296,0.0,2.0,84,0.00,,,-99.99,Weather View 32 v70,2013-09-11 11:48:00,
2013-09-11 06:53:00,59.5,54.7,29.97,WNW,296,0.0,2.0,84,0.00,,,-99.99,Weather View 32 v70,2013-09-11 11:53:00,
2013-09-11 06:58:00,59.5,54.7,29.97,WNW,296,0.0,2.0,84,0.00,,,-99.99,Weather View 32 v70,2013-09-11 11:58:00,
2013-09-11 07:08:00,59.4,54.5,30.00,WNW,295,0.0,2.0,84,0.00,,,-99.99,Weather View 32 v70,2013-09-11 12:08:00,
2013-09-11 07:13:00,59.2,54.3,30.00,WNW,296,0.0,2.0,84,0.00,,,-99.99,Weather View 32 v70,2013-09-11 12:13:00,
2013-09-11 07:23:00,59.0,54.2,30.00,WNW,296,0.0,2.0,84,0.00,,,-99.99,Weather View 32 v70,2013-09-11 12:23:00,
2013-09-11 07:28:00,59.0,54.5,30.00,WNW,296,0.0,2.0,85,0.00,,,-99.99,Weather View 32 v70,2013-09-11 12:28:00,
2013-09-11 07:33:00,59.2,54.7,30.00,WNW,296,0.0,2.0,85,0.00,,,-99.99,Weather View 32 v70,2013-09-11 12:33:00,
2013-09-11 07:38:00,59.2,54.7,30.00,WNW,296,0.0,0.0,85,0.00,,,-99.99,Weather View 32 v70,2013-09-11 12:38:00,
2013-09-11 07:48:00,59.4,55.2,30.00,WNW,297,0.0,0.0,86,0.00,,,-99.99,Weather View 32 v70,2013-09-11 12:48:00,
2013-09-11 07:58:00,59.7,55.5,30.00,WNW,292,0.0,4.0,86,0.00,,,-99.99,Weather View 32 v70,2013-09-11 12:58:00,
2013-09-11 08:03:00,59.7,55.5,30.00,WNW,292,3.0,4.0,86,0.00,,,-99.99,Weather View 32 v70,2013-09-11 13:03:00,
2013-09-11 08:11:00,59.9,56.0,30.00,WNW,292,0.0,4.0,87,0.00,,,-99.99,Weather View 32 v70,2013-09-11 13:11:00,
2013-09-11 08:18:00,60.4,56.5,30.00,WNW,292,0.0,4.0,87,0.00,,,-99.99,Weather View 32 v70,2013-09-11 13:18:00,
2013-09-11 08:23:00,60.6,56.7,30.00,WNW,293,0.0,4.0,87,0.00,,,-99.99,Weather View 32 v70,2013-09-11 13:23:00,
2013-09-11 08:33:00,61.2,57.2,30.00,WNW,292,0.0,4.0,87,0.00,,,-99.99,Weather View 32 v70,2013-09-11 13:33:00,
2013-09-11 08:38:00,61.3,57.7,30.00,WNW,292,0.0,4.0,88,0.00,,,-99.99,Weather View 32 v70,2013-09-11 13:38:00,
2013-09-11 08:48:00,62.1,58.5,30.00,WNW,292,0.0,4.0,88,0.00,,,-99.99,Weather View 32 v70,2013-09-11 13:48:00,
2013-09-11 08:54:00,62.8,59.2,30.00,WNW,292,0.0,4.0,88,0.00,,,-99.99,Weather View 32 v70,2013-09-11 13:54:00,
2013-09-11 09:04:00,63.5,60.2,30.00,WNW,292,2.0,4.0,89,0.00,,,-99.99,Weather View 32 v70,2013-09-11 14:04:00,
2013-09-11 09:09:00,63.9,60.5,30.00,WNW,293,0.0,4.0,89,0.00,,,-99.99,Weather View 32 v70,2013-09-11 14:09:00,
2013-09-11 09:19:00,64.6,60.9,30.03,WNW,293,0.0,4.0,88,0.00,,,-99.99,Weather View 32 v70,2013-09-11 14:19:00,
2013-09-11 09:29:00,65.1,61.8,30.03,WNW,293,0.0,4.0,89,0.00,,,-99.99,Weather View 32 v70,2013-09-11 14:29:00,
2013-09-11 09:34:00,65.5,61.8,30.03,WNW,292,0.0,4.0,88,0.00,,,-99.99,Weather View 32 v70,2013-09-11 14:34:00,
2013-09-11 09:44:00,66.0,62.4,30.03,WNW,289,6.0,6.0,88,0.00,,,-99.99,Weather View 32 v70,2013-09-11 14:44:00,
2013-09-11 09:54:00,66.6,62.6,30.03,WNW,289,4.0,6.0,87,0.00,,,-99.99,Weather View 32 v70,2013-09-11 14:54:00,
2013-09-11 10:04:00,67.3,63.3,30.03,WNW,289,0.0,6.0,87,0.00,,,-99.99,Weather View 32 v70,2013-09-11 15:04:00,
2013-09-11 10:09:00,67.6,63.3,30.03,WNW,289,4.0,6.0,86,0.00,,,-99.99,Weather View 32 v70,2013-09-11 15:09:00,
2013-09-11 10:14:00,68.0,63.3,30.03,WNW,286,3.0,6.0,85,0.00,,,-99.99,Weather View 32 v70,2013-09-11 15:14:00,
2013-09-11 10:24:00,68.4,63.0,30.03,WNW,289,0.0,6.0,83,0.00,,,-99.99,Weather View 32 v70,2013-09-11 15:24:00,
2013-09-11 10:29:00,68.7,63.0,30.03,WNW,289,0.0,6.0,82,0.00,,,-99.99,Weather View 32 v70,2013-09-11 15:29:00,
2013-09-11 10:39:00,69.3,62.8,30.03,WNW,286,3.0,6.0,80,0.00,,,-99.99,Weather View 32 v70,2013-09-11 15:39:00,
2013-09-11 10:44:00,69.8,62.6,30.03,WNW,286,0.0,6.0,78,0.00,,,-99.99,Weather View 32 v70,2013-09-11 15:44:00,
2013-09-11 10:54:00,70.3,62.4,30.03,WNW,285,0.0,4.0,76,0.00,,,-99.99,Weather View 32 v70,2013-09-11 15:54:00,
2013-09-11 11:03:00,70.7,60.4,30.03,WNW,283,0.0,4.0,70,0.00,,,-99.99,Weather View 32 v70,2013-09-11 16:03:00,
2013-09-11 11:08:00,71.1,59.5,30.03,WNW,283,3.0,4.0,67,0.00,,,-99.99,Weather View 32 v70,2013-09-11 16:08:00,
2013-09-11 11:13:00,71.4,59.0,30.03,NW,315,0.0,5.0,65,0.00,,,-99.99,Weather View 32 v70,2013-09-11 16:13:00,
2013-09-11 11:23:00,72.1,56.5,30.00,South,184,4.0,5.0,58,0.00,,,-99.99,Weather View 32 v70,2013-09-11 16:23:00,
2013-09-11 11:33:00,73.0,54.3,30.03,SSE,160,4.0,6.0,52,0.00,,,-99.99,Weather View 32 v70,2013-09-11 16:33:00,
2013-09-11 11:38:00,73.4,55.2,30.03,WNW,282,4.0,6.0,53,0.00,,,-99.99,Weather View 32 v70,2013-09-11 16:38:00,
2013-09-11 11:48:00,74.3,54.9,30.03,SE,143,5.0,6.0,51,0.00,,,-99.99,Weather View 32 v70,2013-09-11 16:48:00,
2013-09-11 11:53:00,74.5,55.6,30.03,NE,53,0.0,6.0,52,0.00,,,-99.99,Weather View 32 v70,2013-09-11 16:53:00,
2013-09-11 12:03:00,75.0,56.1,30.03,WNW,295,4.0,6.0,52,0.00,,,-99.99,Weather View 32 v70,2013-09-11 17:03:00,
2013-09-11 12:08:00,75.6,55.0,30.03,SSW,192,5.0,6.0,49,0.00,,,-99.99,Weather View 32 v70,2013-09-11 17:08:00,
2013-09-11 12:14:00,76.1,54.9,30.00,WNW,300,3.0,6.0,48,0.00,,,-99.99,Weather View 32 v70,2013-09-11 17:14:00,
2013-09-11 12:23:00,77.0,54.6,30.00,SE,146,5.0,6.0,46,0.00,,,-99.99,Weather View 32 v70,2013-09-11 17:23:00,
2013-09-11 12:28:00,77.5,53.8,30.00,West,276,3.0,6.0,44,0.00,,,-99.99,Weather View 32 v70,2013-09-11 17:28:00,
2013-09-11 12:38:00,78.1,53.0,30.00,East,99,4.0,8.0,42,0.00,,,-99.99,Weather View 32 v70,2013-09-11 17:38:00,
2013-09-11 12:48:00,79.2,53.4,30.00,WNW,295,5.0,8.0,41,0.00,,,-99.99,Weather View 32 v70,2013-09-11 17:48:00,
2013-09-11 12:58:00,79.9,51.9,30.00,WNW,292,4.0,8.0,38,0.00,,,-99.99,Weather View 32 v70,2013-09-11 17:58:00,
2013-09-11 13:08:00,79.5,48.6,30.00,WNW,303,8.0,9.0,34,0.00,,,-99.99,Weather View 32 v70,2013-09-11 18:08:00,
2013-09-11 13:14:00,80.1,48.3,30.00,WSW,254,7.0,9.0,33,0.00,,,-99.99,Weather View 32 v70,2013-09-11 18:14:00,
2013-09-11 13:23:00,80.4,48.6,30.00,West,270,4.0,9.0,33,0.00,,,-99.99,Weather View 32 v70,2013-09-11 18:23:00,
2013-09-11 13:33:00,80.8,48.1,30.00,WNW,290,8.0,9.0,32,0.00,,,-99.99,Weather View 32 v70,2013-09-11 18:33:00,
2013-09-11 13:43:00,81.0,47.4,30.00,WSW,255,3.0,9.0,31,0.00,,,-99.99,Weather View 32 v70,2013-09-11 18:43:00,
2013-09-11 13:53:00,80.8,48.1,30.00,WNW,291,4.0,9.0,32,0.00,,,-99.99,Weather View 32 v70,2013-09-11 18:53:00,
2013-09-11 14:03:00,80.8,48.1,30.00,WSW,258,8.0,10.0,32,0.00,,,-99.99,Weather View 32 v70,2013-09-11 19:03:00,
2013-09-11 14:13:00,80.8,47.2,30.00,NW,309,10.0,11.0,31,0.00,,,-99.99,Weather View 32 v70,2013-09-11 19:13:00,
2013-09-11 14:23:00,80.8,47.2,30.00,NW,305,8.0,11.0,31,0.00,,,-99.99,Weather View 32 v70,2013-09-11 19:23:00,
2013-09-11 14:28:00,81.0,46.5,30.00,West,262,4.0,11.0,30,0.00,,,-99.99,Weather View 32 v70,2013-09-11 19:28:00,
2013-09-11 14:38:00,80.8,46.4,30.00,WNW,285,9.0,11.0,30,0.00,,,-99.99,Weather View 32 v70,2013-09-11 19:38:00,
2013-09-11 14:48:00,80.4,46.0,30.00,WNW,291,6.0,11.0,30,0.00,,,-99.99,Weather View 32 v70,2013-09-11 19:48:00,
2013-09-11 14:58:00,80.6,43.4,30.00,NNW,332,8.0,12.0,27,0.00,,,-99.99,Weather View 32 v70,2013-09-11 19:58:00,
2013-09-11 15:08:00,80.4,41.3,30.00,NW,326,8.0,13.0,25,0.00,,,-99.99,Weather View 32 v70,2013-09-11 20:08:00,
2013-09-11 15:15:00,80.2,42.1,30.00,West,273,4.0,13.0,26,0.00,,,-99.99,Weather View 32 v70,2013-09-11 20:15:00,
2013-09-11 15:23:00,80.1,42.0,30.03,NW,325,6.0,15.0,26,0.00,,,-99.99,Weather View 32 v70,2013-09-11 20:23:00,
2013-09-11 15:33:00,79.9,41.8,30.03,WSW,257,3.0,15.0,26,0.00,,,-99.99,Weather View 32 v70,2013-09-11 20:33:00,
2013-09-11 15:43:00,79.5,41.5,30.03,WNW,283,5.0,15.0,26,0.00,,,-99.99,Weather View 32 v70,2013-09-11 20:43:00,
2013-09-11 15:49:00,79.5,41.5,30.03,West,273,6.0,15.0,26,0.00,,,-99.99,Weather View 32 v70,2013-09-11 20:49:00,
2013-09-11 15:59:00,79.5,42.5,30.03,WNW,287,3.0,15.0,27,0.00,,,-99.99,Weather View 32 v70,2013-09-11 20:59:00,
2013-09-11 16:04:00,79.7,41.7,30.03,WSW,253,4.0,15.0,26,0.00,,,-99.99,Weather View 32 v70,2013-09-11 21:04:00,
2013-09-11 16:14:00,79.0,41.1,30.03,NW,310,6.0,15.0,26,0.00,,,-99.99,Weather View 32 v70,2013-09-11 21:14:00,
2013-09-11 16:19:00,79.0,42.1,30.03,WNW,297,4.0,15.0,27,0.00,,,-99.99,Weather View 32 v70,2013-09-11 21:19:00,
2013-09-11 16:29:00,78.8,39.9,30.03,NW,320,0.0,13.0,25,0.00,,,-99.99,Weather View 32 v70,2013-09-11 21:29:00,
2013-09-11 16:39:00,78.4,40.6,30.03,NNW,335,5.0,13.0,26,0.00,,,-99.99,Weather View 32 v70,2013-09-11 21:39:00,
2013-09-11 16:44:00,78.4,39.6,30.03,WNW,285,6.0,13.0,25,0.00,,,-99.99,Weather View 32 v70,2013-09-11 21:44:00,
2013-09-11 16:54:00,78.4,40.6,30.03,NW,323,6.0,13.0,26,0.00,,,-99.99,Weather View 32 v70,2013-09-11 21:54:00,
2013-09-11 17:04:00,78.3,40.5,30.03,West,263,4.0,12.0,26,0.00,,,-99.99,Weather View 32 v70,2013-09-11 22:04:00,
2013-09-11 17:09:00,77.9,40.2,30.03,WNW,290,5.0,12.0,26,0.00,,,-99.99,Weather View 32 v70,2013-09-11 22:09:00,
2013-09-11 17:14:00,77.7,40.0,30.03,NW,322,3.0,12.0,26,0.00,,,-99.99,Weather View 32 v70,2013-09-11 22:14:00,
2013-09-11 17:19:00,77.4,38.7,30.03,WSW,256,4.0,12.0,25,0.00,,,-99.99,Weather View 32 v70,2013-09-11 22:19:00,
2013-09-11 17:24:00,77.2,39.5,30.03,NNW,330,7.0,12.0,26,0.00,,,-99.99,Weather View 32 v70,2013-09-11 22:24:00,
2013-09-11 17:29:00,77.0,40.4,30.06,NE,38,4.0,12.0,27,0.00,,,-99.99,Weather View 32 v70,2013-09-11 22:29:00,
2013-09-11 17:39:00,76.6,41.0,30.06,NW,325,3.0,12.0,28,0.00,,,-99.99,Weather View 32 v70,2013-09-11 22:39:00,
2013-09-11 17:49:00,76.3,41.6,30.06,NW,321,5.0,12.0,29,0.00,,,-99.99,Weather View 32 v70,2013-09-11 22:49:00,
2013-09-11 17:59:00,75.7,42.0,30.06,NW,304,3.0,11.0,30,0.00,,,-99.99,Weather View 32 v70,2013-09-11 22:59:00,
2013-09-11 18:09:00,75.7,42.0,30.06,West,278,6.0,11.0,30,0.00,,,-99.99,Weather View 32 v70,2013-09-11 23:09:00,
2013-09-11 18:14:00,75.4,41.7,30.06,NW,317,7.0,11.0,30,0.00,,,-99.99,Weather View 32 v70,2013-09-11 23:14:00,
2013-09-11 18:19:00,75.2,41.6,30.06,NW,313,6.0,11.0,30,0.00,,,-99.99,Weather View 32 v70,2013-09-11 23:19:00,
2013-09-11 18:24:00,75.0,41.4,30.06,NNW,334,9.0,11.0,30,0.00,,,-99.99,Weather View 32 v70,2013-09-11 23:24:00,
2013-09-11 18:34:00,74.7,41.9,30.06,NW,322,3.0,11.0,31,0.00,,,-99.99,Weather View 32 v70,2013-09-11 23:34:00,
2013-09-11 18:39:00,74.7,41.9,30.06,West,269,5.0,11.0,31,0.00,,,-99.99,Weather View 32 v70,2013-09-11 23:39:00,
2013-09-11 18:44:00,74.5,41.8,30.06,NNW,327,3.0,11.0,31,0.00,,,-99.99,Weather View 32 v70,2013-09-11 23:44:00,
2013-09-11 18:49:00,74.3,41.6,30.06,NW,324,4.0,11.0,31,0.00,,,-99.99,Weather View 32 v70,2013-09-11 23:49:00,
2013-09-11 18:54:00,74.3,41.6,30.06,WNW,293,4.0,11.0,31,0.00,,,-99.99,Weather View 32 v70,2013-09-11 23:54:00,
2013-09-11 18:59:00,73.9,41.3,30.06,NW,318,3.0,11.0,31,0.00,,,-99.99,Weather View 32 v70,2013-09-11 23:59:00,
2013-09-11 19:09:00,73.4,40.8,30.06,NW,318,0.0,11.0,31,0.00,,,-99.99,Weather View 32 v70,2013-09-12 00:09:00,
2013-09-11 19:14:00,73.0,41.4,30.06,WNW,293,3.0,11.0,32,0.00,,,-99.99,Weather View 32 v70,2013-09-12 00:14:00,
2013-09-11 19:24:00,72.5,40.9,30.06,NNW,332,4.0,11.0,32,0.00,,,-99.99,Weather View 32 v70,2013-09-12 00:24:00,
2013-09-11 19:34:00,71.8,40.3,30.06,WNW,291,5.0,10.0,32,0.00,,,-99.99,Weather View 32 v70,2013-09-12 00:34:00,
2013-09-11 19:39:00,71.2,40.6,30.06,NW,308,3.0,10.0,33,0.00,,,-99.99,Weather View 32 v70,2013-09-12 00:39:00,
2013-09-11 19:44:00,70.9,40.3,30.06,WNW,302,4.0,10.0,33,0.00,,,-99.99,Weather View 32 v70,2013-09-12 00:44:00,
2013-09-11 19:54:00,70.2,40.4,30.06,NW,306,3.0,10.0,34,0.00,,,-99.99,Weather View 32 v70,2013-09-12 00:54:00,
2013-09-11 19:59:00,69.8,40.8,30.06,NW,310,0.0,10.0,35,0.00,,,-99.99,Weather View 32 v70,2013-09-12 00:59:00,
2013-09-11 20:09:00,69.1,40.9,30.09,NW,305,4.0,7.0,36,0.00,,,-99.99,Weather View 32 v70,2013-09-12 01:09:00,
2013-09-11 20:19:00,68.2,41.5,30.09,NW,305,0.0,7.0,38,0.00,,,-99.99,Weather View 32 v70,2013-09-12 01:19:00,
2013-09-11 20:29:00,67.8,42.6,30.09,NW,308,0.0,7.0,40,0.00,,,-99.99,Weather View 32 v70,2013-09-12 01:29:00,
2013-09-11 20:39:00,67.3,42.7,30.09,NW,308,0.0,6.0,41,0.00,,,-99.99,Weather View 32 v70,2013-09-12 01:39:00,
2013-09-11 20:44:00,66.9,43.0,30.09,NW,308,0.0,6.0,42,0.00,,,-99.99,Weather View 32 v70,2013-09-12 01:44:00,
2013-09-11 20:54:00,66.4,43.1,30.09,NW,308,0.0,6.0,43,0.00,,,-99.99,Weather View 32 v70,2013-09-12 01:54:00,
2013-09-11 21:04:00,65.7,43.1,30.09,NW,308,0.0,5.0,44,0.00,,,-99.99,Weather View 32 v70,2013-09-12 02:04:00,
2013-09-11 21:14:00,65.1,42.6,30.09,NW,308,0.0,4.0,44,0.00,,,-99.99,Weather View 32 v70,2013-09-12 02:14:00,
2013-09-11 21:19:00,65.1,43.2,30.09,NW,308,0.0,4.0,45,0.00,,,-99.99,Weather View 32 v70,2013-09-12 02:19:00,
2013-09-11 21:28:00,64.9,43.6,30.09,NW,308,0.0,3.0,46,0.00,,,-99.99,Weather View 32 v70,2013-09-12 02:28:00,
2013-09-11 21:33:00,64.8,43.4,30.12,NW,308,0.0,3.0,46,0.00,,,-99.99,Weather View 32 v70,2013-09-12 02:33:00,
2013-09-11 21:43:00,64.4,43.1,30.12,NW,308,0.0,0.0,46,0.00,,,-99.99,Weather View 32 v70,2013-09-12 02:43:00,
2013-09-11 21:53:00,63.7,43.0,30.12,NW,308,0.0,0.0,47,0.00,,,-99.99,Weather View 32 v70,2013-09-12 02:53:00,
2013-09-11 22:03:00,63.1,43.1,30.12,NW,308,0.0,0.0,48,0.00,,,-99.99,Weather View 32 v70,2013-09-12 03:03:00,
2013-09-11 22:08:00,63.0,42.9,30.12,NW,308,0.0,0.0,48,0.00,,,-99.99,Weather View 32 v70,2013-09-12 03:08:00,
2013-09-11 22:13:00,63.0,43.5,30.12,NW,308,0.0,0.0,49,0.00,,,-99.99,Weather View 32 v70,2013-09-12 03:13:00,
2013-09-11 22:18:00,62.6,43.1,30.12,NW,308,0.0,0.0,49,0.00,,,-99.99,Weather View 32 v70,2013-09-12 03:18:00,
2013-09-11 22:28:00,62.6,43.7,30.12,NW,308,0.0,0.0,50,0.00,,,-99.99,Weather View 32 v70,2013-09-12 03:28:00,
2013-09-11 22:33:00,62.4,43.5,30.12,NW,308,0.0,0.0,50,0.00,,,-99.99,Weather View 32 v70,2013-09-12 03:33:00,
2013-09-11 22:43:00,62.1,43.7,30.12,NW,308,0.0,0.0,51,0.00,,,-99.99,Weather View 32 v70,2013-09-12 03:43:00,
2013-09-11 22:53:00,61.7,43.9,30.12,NW,308,0.0,0.0,52,0.00,,,-99.99,Weather View 32 v70,2013-09-12 03:53:00,
2013-09-11 22:58:00,61.3,43.5,30.12,NW,308,0.0,0.0,52,0.00,,,-99.99,Weather View 32 v70,2013-09-12 03:58:00,
2013-09-11 23:03:00,61.2,43.9,30.12,NW,308,0.0,0.0,53,0.00,,,-99.99,Weather View 32 v70,2013-09-12 04:03:00,
2013-09-11 23:08:00,61.0,43.7,30.12,NW,308,0.0,0.0,53,0.00,,,-99.99,Weather View 32 v70,2013-09-12 04:08:00,
2013-09-11 23:13:00,60.8,43.5,30.15,NW,308,0.0,0.0,53,0.00,,,-99.99,Weather View 32 v70,2013-09-12 04:13:00,
2013-09-11 23:18:00,60.6,43.8,30.15,NW,308,0.0,0.0,54,0.00,,,-99.99,Weather View 32 v70,2013-09-12 04:18:00,
2013-09-11 23:23:00,60.4,43.7,30.15,NW,308,0.0,0.0,54,0.00,,,-99.99,Weather View 32 v70,2013-09-12 04:23:00,
2013-09-11 23:28:00,60.3,44.0,30.15,NW,308,0.0,0.0,55,0.00,,,-99.99,Weather View 32 v70,2013-09-12 04:28:00,
2013-09-11 23:33:00,60.1,43.8,30.15,NW,308,0.0,0.0,55,0.00,,,-99.99,Weather View 32 v70,2013-09-12 04:33:00,
2013-09-11 23:38:00,59.9,44.1,30.15,NW,308,0.0,0.0,56,0.00,,,-99.99,Weather View 32 v70,2013-09-12 04:38:00,
2013-09-11 23:43:00,59.7,44.0,30.15,NW,308,0.0,0.0,56,0.00,,,-99.99,Weather View 32 v70,2013-09-12 04:43:00,
2013-09-11 23:48:00,59.4,43.6,30.15,NW,308,0.0,0.0,56,0.00,,,-99.99,Weather View 32 v70,2013-09-12 04:48:00,
2013-09-11 23:58:00,59.2,43.9,30.15,NW,308,0.0,0.0,57,0.00,,,-99.99,Weather View 32 v70,2013-09-12 04:58:00,